Location: Elko Observing site
(32.3606°N, 83.7235°W)
Time: 14:24:49
(UTC-04:00)

N. Korean satellite - Pass Details

Date: 26 March 2019
Orbit: 457 x 508 km, 97.2° (Epoch: 21 April)

Event Time Altitude Azimuth Distance (km) Brightness Sun altitude
Rises 06:53:43 0° 30° (NNE) 2,544 10.8 -8.7°
Reaches altitude 10° 06:56:13 10° 48° (NE) 1,671 10.2 -8.2°
Maximum altitude 06:58:51 19° 96° (E) 1,207 9.8 -7.6°
Drops below altitude 10° 07:01:31 10° 143° (SE) 1,683 9.7 -7.1°
Sets 07:04:02 0° 162° (SSE) 2,570 10.4 -6.5°
